Hondo, TX

2:52 PM CST on December 06, 2019 (GMT -0600)
Hondo Municipal

Weather History for KHDO - October, 2019

Change the Weather History Date:

Monday, October 21, 2019

  Actual Average Record
Temperature  
Mean Temperature 72 °F -  
Max Temperature 86 °F 79 °F 91 °F (2012)
Min Temperature 55 °F 56 °F 41 °F (1999)
Cooling Degree Days 7    
Growing Degree Days 22 (Base 50)    
Moisture  
Dew Point 49 °F    
Average Humidity 50    
Maximum Humidity 88    
Minimum Humidity 13    
Precipitation  
Precipitation 0.00 in - - ()
Sea Level Pressure  
Sea Level Pressure 29.83 in    
Wind  
Wind Speed 11 mph (NE)    
Max Wind Speed 28 mph    
Max Gust Speed 34 mph    
Visibility 10 miles    
Events Rain    
Averages and records for this station are not official NWS values.
T = Trace of Precipitation, MM = Missing Value Source: NWS Daily Summary

Daily Weather History Graph

Daily Weather History Graph

Search for Another Location

Airport or City:

Astronomy

Oct. 21, 2019 Rise Set
Actual Time 7:41 AM CDT 7:00 PM CDT
Civil Twilight 7:17 AM CDT 7:24 PM CDT
Nautical Twilight 6:49 AM CDT 7:52 PM CDT
Astronomical Twilight 6:22 AM CDT 8:19 PM CDT
Moon 12:29 AM CDT (10/21) 2:45 PM CDT (10/21)
Length of Visible Light 12h 06m
Length of Day
11h 18m
Waning Gibbous, 48% of the Moon is Illuminated
Oct 21
Waning Gibbous
Oct 27
New
Nov 4
First Quarter
Nov 12
Full
Nov 19
Last Quarter

Hourly Weather History & Observations

Time (CDT) Temp. Dew Point Humidity Pressure Visibility Wind Dir Wind Speed Gust Speed Precip Events Conditions
12:51 AM 79.0 °F 73.0 °F 82% 29.68 in 10.0 mi SSE 11.5 mph - N/A   Overcast
1:51 AM 79.0 °F 73.0 °F 82% 29.69 in 10.0 mi South 6.9 mph - N/A   Overcast
2:51 AM 78.1 °F 73.0 °F 84% 29.70 in 10.0 mi East 4.6 mph - 0.00 in Rain Light Rain
3:13 AM 77.0 °F 73.0 °F 88% 29.74 in 10.0 mi SSE 4.6 mph - 0.00 in   Mostly Cloudy
3:51 AM 73.0 °F 66.9 °F 81% 29.73 in 8.0 mi North 27.6 mph 34.5 mph 0.00 in   Mostly Cloudy
4:04 AM 70.0 °F 57.9 °F 65% 29.78 in 10.0 mi North 23.0 mph - N/A   Overcast
4:29 AM 66.9 °F 61.0 °F 81% 29.79 in 10.0 mi North 12.7 mph 20.7 mph 0.00 in Rain Light Rain
4:51 AM 66.0 °F 61.0 °F 84% 29.73 in 10.0 mi NNE 9.2 mph - 0.00 in   Overcast
5:51 AM 66.0 °F 59.0 °F 78% 29.73 in 10.0 mi North 5.8 mph - N/A   Mostly Cloudy
6:51 AM 64.9 °F 57.9 °F 78% 29.75 in 10.0 mi NNW 10.4 mph - N/A   Partly Cloudy
7:51 AM 64.9 °F 53.1 °F 65% 29.79 in 10.0 mi NNE 10.4 mph - N/A   Clear
8:51 AM 68.0 °F 51.1 °F 55% 29.83 in 10.0 mi NNE 16.1 mph - N/A   Unknown
9:51 AM 73.0 °F 44.1 °F 35% 29.86 in 10.0 mi NE 15.0 mph - N/A   Clear
10:51 AM 75.9 °F 39.0 °F 26% 29.88 in 10.0 mi NE 19.6 mph - N/A   Clear
11:51 AM 78.1 °F 37.0 °F 23% 29.89 in 10.0 mi NNE 10.4 mph - N/A   Clear
12:51 PM 81.0 °F 36.0 °F 20% 29.88 in 10.0 mi ENE 12.7 mph 17.3 mph N/A   Clear
1:51 PM 82.0 °F 34.0 °F 18% 29.86 in 10.0 mi NE 10.4 mph - N/A   Clear
2:51 PM 84.0 °F 32.0 °F 15% 29.85 in 10.0 mi North 9.2 mph - N/A   Clear
3:51 PM 84.9 °F 30.9 °F 14% 29.83 in 10.0 mi Variable 4.6 mph - N/A   Clear
4:51 PM 84.9 °F 28.9 °F 13% 29.84 in 10.0 mi NNE 6.9 mph - N/A   Clear
5:51 PM 84.0 °F 30.9 °F 15% 29.83 in 10.0 mi ENE 4.6 mph - N/A   Clear
6:51 PM 77.0 °F 35.1 °F 22% 29.86 in 10.0 mi East 6.9 mph - N/A   Clear
7:51 PM 72.0 °F 37.0 °F 28% 29.91 in 10.0 mi East 6.9 mph - N/A   Clear
8:51 PM 66.0 °F 39.9 °F 38% 29.94 in 10.0 mi ENE 8.1 mph - N/A   Clear
9:51 PM 62.1 °F 41.0 °F 46% 29.96 in 10.0 mi ENE 8.1 mph - N/A   Clear
10:51 PM 60.1 °F 41.0 °F 49% 30.00 in 10.0 mi ENE 4.6 mph - N/A   Clear
11:51 PM 55.0 °F 44.1 °F 67% 30.02 in 10.0 mi NNE 6.9 mph - N/A   Clear